DW9686 Weather Reports


time (UTC)temp
C
wind
direction
speed
KPH
gust
KPH
rain 1hr
cm
rain 24hr
cm
rain mn
cm
humidity
%
barometer
mb
20260503203033 28 348 8.0 14.5 0.00 0.00 0.00 34 1011.7
20260503201530 27 352 6.4 14.5 0.00 0.00 0.00 36 1011.9
20260503200031 27 352 6.4 14.5 0.00 0.00 0.00 36 1011.9
20260503194532 26 324 6.4 12.9 0.00 0.00 0.00 38 1012.2
20260503193032 26 336 6.4 12.9 0.00 0.00 0.00 39 1012.5
20260503191530 26 333 3.2 12.9 0.00 0.00 0.00 39 1012.6
20260503190029 25 352 6.4 12.9 0.00 0.00 0.00 41 1012.9
20260503184534 25 325 3.2 9.7 0.00 0.00 0.00 44 1013.1
20260503183040 24 325 3.2 14.5 0.00 0.00 0.00 42 1013.2
20260503181532 23 311 3.2 14.5 0.00 0.00 0.00 46 1013.3
20260503180034 23 345 6.4 19.3 0.00 0.00 0.00 45 1013.4
20260503174541 23 335 6.4 14.5 0.00 0.00 0.00 46 1013.4
20260503173032 22 349 4.8 17.7 0.00 0.00 0.00 48 1013.6
20260503171535 22 350 6.4 14.5 0.00 0.00 0.00 49 1013.7
20260503081552 16 5 4.8 8.0 0.00 0.00 0.00 59 1012.7
20260503071556 16 5 4.8 8.0 0.00 0.00 0.00 57 1012.4
20260503054540 18 11 6.4 14.5 0.00 0.00 0.00 55 1012.0
20260503053034 18 26 4.8 9.7 0.00 0.00 0.00 56 1012.2
20260503051545 18 27 3.2 9.7 0.00 0.00 0.00 55 1012.0
20260503050034 20 29 4.8 9.7 0.00 0.00 0.00 51 1011.9
20260503044531 20 35 3.2 6.4 0.00 0.00 0.00 50 1011.9
20260503043031 20 35 3.2 6.4 0.00 0.00 0.00 51 1011.9
20260503041536 20 35 3.2 6.4 0.00 0.00 0.00 51 1011.8
20260503040035 20 35 3.2 6.4 0.00 0.00 0.00 51 1011.6
20260503034538 21 36 3.2 6.4 0.00 0.00 0.00 50 1011.4
20260503033041 21 36 3.2 6.4 0.00 0.00 0.00 49 1011.3
20260503031536 22 36 3.2 6.4 0.00 0.00 0.00 49 1011.1
20260503030036 22 36 3.2 6.4 0.00 0.00 0.00 47 1011.0
20260503024544 23 36 3.2 6.4 0.00 0.00 0.00 46 1010.9
20260503023033 25 36 1.6 8.0 0.00 0.00 0.00 44 1010.7
20260503021535 26 36 3.2 8.0 0.00 0.00 0.00 39 1010.7
20260503020032 27 36 6.4 14.5 0.00 0.00 0.00 35 1010.8
20260503014530 27 40 6.4 11.3 0.00 0.00 0.00 35 1010.7
20260503013036 27 43 6.4 16.1 0.00 0.00 0.00 34 1010.7
20260503011531 28 48 8.0 17.7 0.00 0.00 0.00 32 1010.8
20260503010034 29 49 8.0 14.5 0.00 0.00 0.00 28 1010.8
20260503004537 29 29 9.7 16.1 0.00 0.00 0.00 27 1010.9
20260503003038 29 53 8.0 17.7 0.00 0.00 0.00 24 1010.9
20260503001536 30 48 4.8 19.3 0.00 0.00 0.00 24 1010.9
20260503000029 30 74 8.0 24.1 0.00 0.00 0.00 24 1010.8
20260502234545 30 46 11.3 19.3 0.00 0.00 0.00 24 1011.0
20260502233035 30 40 11.3 20.9 0.00 0.00 0.00 25 1011.1
20260502231534 30 47 8.0 17.7 0.00 0.00 0.00 26 1011.3
20260502230033 30 49 9.7 17.7 0.00 0.00 0.00 26 1011.3
20260502224532 30 55 12.9 22.5 0.00 0.00 0.00 27 1011.5
20260502223032 30 51 6.4 16.1 0.00 0.00 0.00 30 1011.7
20260502221535 29 72 8.0 14.5 0.00 0.00 0.00 31 1011.8
20260502220034 29 0 0.0 12.9 0.00 0.00 0.00 31 1012.0
20260502214531 28 85 4.8 12.9 0.00 0.00 0.00 34 1012.1
20260502213042 28 73 6.4 17.7 0.00 0.00 0.00 35 1012.2
20260502211537 28 49 4.8 11.3 0.00 0.00 0.00 35 1012.3
20260502210034 28 48 8.0 17.7 0.00 0.00 0.00 36 1012.5
20260502204534 28 35 4.8 17.7 0.00 0.00 0.00 35 1012.7